When you browse on this site, cookies collect data to enhance your experience and personalize the content and advertising you see.
Visit our Privacy Policy to learn more. By continuing to use the site, you agree to this use of cookies and data.

Hourly Weather Wiktoria

Today, 4 August, Tuesday

Time Temperature Precipitation Wind Pressure Humidity
00:00 +6°C° 0 mm 2 mps 748 mmHg 89%
01:00 +5°C° 0 mm 2 mps 748 mmHg 92%
02:00 +5°C° 0 mm 2 mps 748 mmHg 90%
03:00 +5°C° 0 mm 3 mps 748 mmHg 87%
04:00 +5°C° 0 mm 3 mps 747 mmHg 90%
05:00 +4°C° 0 mm 3 mps 748 mmHg 91%
06:00 +2°C° 0 mm 3 mps 748 mmHg 93%
07:00 +1°C° 0 mm 3 mps 748 mmHg 95%
08:00 +1°C° 0 mm 4 mps 748 mmHg 83%
09:00 +3°C° 0 mm 5 mps 749 mmHg 71%
10:00 +5°C° 0 mm 5 mps 749 mmHg 62%
11:00 +5°C° 0 mm 6 mps 749 mmHg 61%
12:00 +7°C° 0 mm 6 mps 748 mmHg 60%
13:00 +8°C° 0 mm 7 mps 748 mmHg 58%
14:00 +8°C° 0 mm 6 mps 748 mmHg 57%
15:00 +8°C° 0 mm 6 mps 748 mmHg 56%
16:00 +8°C° 0 mm 5 mps 748 mmHg 56%
17:00 +6°C° 0 mm 4 mps 748 mmHg 62%
18:00 +5°C° 0 mm 3 mps 748 mmHg 68%
19:00 +3°C° 0 mm 3 mps 748 mmHg 74%
20:00 +2°C° 0 mm 3 mps 749 mmHg 78%
21:00 +2°C° 0 mm 3 mps 749 mmHg 83%
22:00 +1°C° 0 mm 4 mps 750 mmHg 87%
23:00 +1°C° 0 mm 3 mps 750 mmHg 90%

Tomorrow, 5 August, Wednesday

Time Temperature Precipitation Wind Pressure Humidity
00:00 0°C° 0 mm 3 mps 749 mmHg 92%
01:00 0°C° 0 mm 3 mps 749 mmHg 94%
02:00 0°C° 0 mm 3 mps 749 mmHg 92%
03:00 0°C° 0 mm 4 mps 749 mmHg 89%
04:00 0°C° 0 mm 4 mps 749 mmHg 87%
05:00 0°C° 0 mm 4 mps 749 mmHg 89%
06:00 0°C° 0 mm 3 mps 750 mmHg 91%
07:00 0°C° 0 mm 3 mps 750 mmHg 93%
08:00 +1°C° 0 mm 4 mps 750 mmHg 85%
09:00 +5°C° 0 mm 4 mps 751 mmHg 76%
10:00 +7°C° 0 mm 5 mps 751 mmHg 67%
11:00 +8°C° 0 mm 5 mps 751 mmHg 65%
12:00 +8°C° 0 mm 5 mps 751 mmHg 62%
13:00 +9°C° 0 mm 5 mps 750 mmHg 59%
14:00 +10°C° 0.1 mm 4 mps 750 mmHg 62%
15:00 +8°C° 0.1 mm 4 mps 750 mmHg 64%
16:00 +8°C° 0.1 mm 4 mps 750 mmHg 67%
17:00 +7°C° 0.1 mm 4 mps 751 mmHg 73%
18:00 +5°C° 0.1 mm 3 mps 751 mmHg 80%
19:00 +4°C° 0.1 mm 3 mps 751 mmHg 86%
20:00 +3°C° 0 mm 3 mps 752 mmHg 89%
21:00 +3°C° 0 mm 3 mps 752 mmHg 91%
22:00 +3°C° 0 mm 2 mps 752 mmHg 94%
23:00 +2°C° 0 mm 2 mps 752 mmHg 94%

Day after tomorrow, 6 August, Thursday

Time Temperature Precipitation Wind Pressure Humidity
00:00 +2°C° 0 mm 2 mps 752 mmHg 94%
01:00 +1°C° 0 mm 2 mps 752 mmHg 95%
02:00 +1°C° 0 mm 2 mps 752 mmHg 94%
03:00 +1°C° 0 mm 2 mps 752 mmHg 94%
04:00 +1°C° 0 mm 2 mps 752 mmHg 94%
05:00 +1°C° 0 mm 2 mps 752 mmHg 94%
06:00 +1°C° 0 mm 2 mps 753 mmHg 94%
07:00 +1°C° 0 mm 2 mps 753 mmHg 94%
08:00 +3°C° 0 mm 2 mps 753 mmHg 89%
09:00 +5°C° 0 mm 2 mps 754 mmHg 84%
10:00 +8°C° 0 mm 2 mps 754 mmHg 79%
11:00 +9°C° 0 mm 2 mps 753 mmHg 74%
12:00 +10°C° 0 mm 3 mps 753 mmHg 70%
13:00 +11°C° 0 mm 3 mps 753 mmHg 65%
14:00 +11°C° 0 mm 3 mps 753 mmHg 66%
15:00 +11°C° 0 mm 3 mps 752 mmHg 66%
16:00 +11°C° 0 mm 3 mps 752 mmHg 67%
17:00 +9°C° 0 mm 3 mps 753 mmHg 75%
18:00 +7°C° 0 mm 3 mps 753 mmHg 82%
19:00 +4°C° 0 mm 4 mps 753 mmHg 90%
20:00 +4°C° 0 mm 3 mps 753 mmHg 91%
21:00 +3°C° 0 mm 3 mps 753 mmHg 91%
22:00 +3°C° 0 mm 3 mps 753 mmHg 92%
23:00 +2°C° 0 mm 3 mps 753 mmHg 92%

7 August, Friday

Time Temperature Precipitation Wind Pressure Humidity
00:00 +3°C° 0 mm 2 mps 753 mmHg 92%
01:00 +3°C° 0 mm 2 mps 753 mmHg 92%
02:00 +2°C° 0 mm 2 mps 753 mmHg 91%
03:00 +2°C° 0 mm 2 mps 753 mmHg 90%
04:00 +2°C° 0 mm 2 mps 752 mmHg 90%
05:00 +2°C° 0 mm 2 mps 753 mmHg 88%
06:00 +2°C° 0 mm 2 mps 753 mmHg 86%
07:00 +3°C° 0 mm 2 mps 753 mmHg 84%
08:00 +4°C° 0 mm 2 mps 753 mmHg 78%
09:00 +6°C° 0 mm 2 mps 753 mmHg 72%
10:00 +8°C° 0 mm 2 mps 752 mmHg 66%
11:00 +9°C° 0 mm 2 mps 752 mmHg 64%
12:00 +10°C° 0 mm 2 mps 751 mmHg 63%
13:00 +11°C° 0 mm 3 mps 750 mmHg 61%
14:00 +12°C° 0 mm 2 mps 750 mmHg 65%
15:00 +12°C° 0 mm 2 mps 749 mmHg 69%
16:00 +12°C° 0 mm 1 mps 749 mmHg 74%
17:00 +10°C° 0.3 mm 2 mps 749 mmHg 78%
18:00 +9°C° 0.3 mm 3 mps 750 mmHg 83%
19:00 +7°C° 0.3 mm 4 mps 750 mmHg 87%
20:00 +7°C° 0.8 mm 4 mps 750 mmHg 89%
21:00 +7°C° 0.8 mm 5 mps 750 mmHg 90%
22:00 +6°C° 0.8 mm 5 mps 751 mmHg 92%
23:00 +7°C° 0.1 mm 5 mps 750 mmHg 91%

8 August, Saturday

Time Temperature Precipitation Wind Pressure Humidity
00:00 +7°C° 0.1 mm 5 mps 750 mmHg 91%
01:00 +7°C° 0.1 mm 5 mps 750 mmHg 90%
02:00 +7°C° 0.1 mm 5 mps 749 mmHg 90%
03:00 +7°C° 0.1 mm 5 mps 749 mmHg 91%
04:00 +7°C° 0.1 mm 5 mps 748 mmHg 91%
05:00 +7°C° 0.2 mm 4 mps 748 mmHg 91%
06:00 +7°C° 0.2 mm 4 mps 748 mmHg 91%
07:00 +8°C° 0.2 mm 3 mps 749 mmHg 91%
08:00 +7°C° 0.2 mm 4 mps 749 mmHg 91%
09:00 +8°C° 0.2 mm 4 mps 749 mmHg 91%
10:00 +8°C° 0.2 mm 4 mps 749 mmHg 91%
11:00 +10°C° 0.2 mm 4 mps 748 mmHg 91%
12:00 +10°C° 0.2 mm 4 mps 748 mmHg 90%
13:00 +11°C° 0.2 mm 4 mps 748 mmHg 90%
14:00 +11°C° 0 mm 3 mps 747 mmHg 87%
15:00 +12°C° 0 mm 3 mps 747 mmHg 85%
16:00 +13°C° 0 mm 2 mps 747 mmHg 83%
17:00 +13°C° 0 mm 2 mps 747 mmHg 83%
18:00 +12°C° 0 mm 2 mps 747 mmHg 82%
19:00 +12°C° 0 mm 2 mps 748 mmHg 82%
20:00 +10°C° 0 mm 3 mps 748 mmHg 82%
21:00 +10°C° 0 mm 3 mps 748 mmHg 81%
22:00 +9°C° 0 mm 3 mps 748 mmHg 81%
23:00 +9°C° 0 mm 3 mps 748 mmHg 83%

9 August, Sunday

Time Temperature Precipitation Wind Pressure Humidity
00:00 +8°C° 0 mm 3 mps 748 mmHg 84%
01:00 +8°C° 0 mm 3 mps 748 mmHg 86%
02:00 +8°C° 0 mm 3 mps 748 mmHg 84%
03:00 +8°C° 0 mm 3 mps 748 mmHg 83%
04:00 +8°C° 0 mm 3 mps 747 mmHg 81%
05:00 +7°C° 0 mm 4 mps 748 mmHg 81%
06:00 +7°C° 0 mm 4 mps 748 mmHg 81%
07:00 +6°C° 0 mm 4 mps 749 mmHg 81%
08:00 +8°C° 0 mm 4 mps 749 mmHg 77%
09:00 +10°C° 0 mm 4 mps 749 mmHg 73%
10:00 +12°C° 0 mm 4 mps 749 mmHg 69%
11:00 +13°C° 0 mm 4 mps 749 mmHg 67%
12:00 +14°C° 0 mm 4 mps 749 mmHg 65%
13:00 +15°C° 0 mm 4 mps 749 mmHg 62%
14:00 +14°C° 0 mm 4 mps 749 mmHg 64%
15:00 +14°C° 0 mm 4 mps 749 mmHg 65%
16:00 +14°C° 0 mm 5 mps 749 mmHg 67%
17:00 +12°C° 0 mm 4 mps 749 mmHg 70%
18:00 +10°C° 0 mm 4 mps 750 mmHg 73%
19:00 +7°C° 0 mm 4 mps 750 mmHg 77%
20:00 +6°C° 0 mm 4 mps 751 mmHg 80%
21:00 +5°C° 0 mm 4 mps 751 mmHg 83%
22:00 +4°C° 0 mm 4 mps 752 mmHg 86%
23:00 +3°C° 0 mm 4 mps 752 mmHg 87%
Show more